[[{"header":{"parameterUnit":"m.s-1","parameterCategory":1,"la1":30.2991,"la2":30.254,"lo1":-89.0895,"lo2":-89.0444,"dy":0.0017,"dx":0.0017,"nx":28,"ny":28,"refTime":"2025-04-24T09:00:00:Z","depth":0,"parameterNumber":2,"parameterNumberName":"U-component_of_WINDS"},"data":[0,0,0,0,0,0,0,0,0,0,0,0,0,0,0,0,0,0,0,0,0,0,0,0,0,0,0,0,0,0,0,0,0,0,0,0,0,0,0,0,0,0,0,0,0,0,0,0,0,0,0,0,0,0,0,0,0,0,1.7896,1.7897,0,1.799,1.7991,1.7992,1.7993,1.7992,1.799,1.7989,1.8084,1.8088,1.8091,0,0,0,0,0,0,0,0,0,0,0,0,0,1.7716,1.772,1.7896,1.7897,1.7898,1.7989,1.7991,1.7992,1.7993,1.7992,1.799,1.7989,1.8083,1.8087,1.8091,0,0,0,0,0,0,0,0,0,0,0,0,0,1.7801,1.7721,1.7896,1.791,1.7912,1.7989,1.7991,1.7992,1.7993,1.7992,1.799,1.7988,1.8081,1.8087,1.8092,1.8161,0,0,1.8109,1.8111,0,0,0,0,0,0,0,0,1.7796,1.7807,1.7907,1.7909,1.7912,1.7978,1.7962,1.8049,1.7994,1.7962,1.7989,1.7987,1.805,1.8058,1.8079,1.8166,1.817,1.8109,1.8112,1.8115,1.8116,0,0,0,0,0,0,0,1.779,1.7803,1.7933,1.7908,1.7911,1.7911,1.7921,1.7979,1.8015,1.7965,1.7965,1.7976,1.8051,1.8074,1.8082,1.8171,1.8109,1.8114,1.8117,1.8119,1.8318,1.832,0,0,0,0,0,0,1.7781,1.7798,1.793,1.7936,1.7848,1.7916,1.7927,1.7958,1.8014,1.8021,1.7978,1.7976,1.8066,1.8075,1.8085,1.8169,1.8115,1.812,1.8123,1.8316,1.8318,1.832,0,0,0,0,0,0,1.7778,1.7793,1.7926,1.7867,1.7884,1.7921,1.7956,1.7961,1.7984,1.8024,1.803,1.7995,1.8065,1.8077,1.8142,1.8172,1.8122,1.8127,1.8313,1.8316,1.8319,1.8338,0,0,0,0,0,0,1.7772,1.7792,1.7819,1.7868,1.7887,1.7982,1.7958,1.7964,1.7994,1.7992,1.8042,1.8048,1.8064,1.8134,1.8147,1.8179,1.8131,1.8311,1.8315,1.8318,1.8334,1.8341,1.8346,0,0,0,0,0,1.7766,1.782,1.782,1.7836,1.7922,1.7984,1.7995,1.8013,1.7996,1.8023,1.8049,1.8047,1.8167,1.8141,1.8156,1.8189,1.8309,1.8314,1.8318,1.8332,1.834,1.8346,0,0,0,0,0,0,1.7774,1.7827,1.7828,1.7899,1.7937,1.7984,1.8019,1.8021,1.8064,1.8061,1.808,1.8092,1.8156,1.8179,1.8149,1.8258,1.8236,1.8243,1.8241,1.8249,1.8255,1.8247,1.8136,0,0,0,0,0,1.7784,1.783,1.7874,1.7933,1.7952,1.7982,1.801,1.802,1.806,1.8076,1.8107,1.8145,1.8191,1.8221,1.8266,1.8338,1.8348,1.8368,1.8374,1.8379,1.8385,1.8424,1.8433,1.8335,1.8335,1.8335,0,0,1.7805,1.784,1.7868,1.7936,1.7966,1.8013,1.7996,1.8047,1.8082,1.8084,1.8147,1.817,1.8214,1.8283,1.8314,1.8304,1.8415,1.8385,1.8388,1.8392,1.8429,1.8439,1.8447,1.8338,1.8338,1.8337,0,0,1.7867,1.7899,1.7951,1.7982,1.8029,1.8048,1.8061,1.8108,1.8123,1.8187,1.819,1.8231,1.8311,1.8342,1.8368,1.8442,1.8441,1.8456,1.8487,1.8524,1.8532,1.8539,1.8565,1.8574,1.8462,1.8462,1.8462,0,1.7887,1.7959,1.7978,1.8029,1.8058,1.8062,1.8115,1.8144,1.8203,1.8223,1.821,1.831,1.834,1.8415,1.8433,1.8455,1.8469,1.845,1.853,1.8537,1.8543,1.8568,1.8578,1.8464,1.8464,1.8464,1.8463,0,1.7981,1.8031,1.8068,1.8124,1.8158,1.8209,1.8235,1.8267,1.8274,1.8295,1.8359,1.8395,1.8447,1.8466,1.8473,1.8542,1.8534,1.8526,1.8503,1.8554,1.8577,1.8587,1.8466,1.8465,1.8465,1.8465,0,0,1.8051,1.8117,1.813,1.8156,1.8208,1.8246,1.8297,1.8348,1.8375,1.8415,1.8458,1.8525,1.8518,1.8547,1.8558,1.8592,1.8647,1.8579,1.858,1.859,1.8723,1.8729,1.874,1.8647,1.8649,1.865,1.8719,0,1.8119,1.8211,1.8228,1.8308,1.8353,1.8358,1.8403,1.8439,1.846,1.8501,1.8523,1.857,1.8557,1.8575,1.8608,1.8633,1.8674,1.8628,1.8686,1.8688,1.8674,1.8752,1.8758,1.8822,1.8729,1.873,1.8731,0,1.821,1.8252,1.8336,1.8381,1.8401,1.8441,1.8489,1.8529,1.8569,1.8582,1.8615,1.8622,1.8675,1.8651,1.8723,1.8692,1.8716,1.8732,1.8735,1.8741,1.8712,1.8759,1.8843,1.8852,1.8746,1.8745,1.8744,0,1.8251,1.833,1.839,1.8412,1.8466,1.8494,1.8517,1.8557,1.8586,1.8628,1.8647,1.8694,1.872,1.8756,1.8776,1.8756,1.8846,1.8823,1.8858,1.8857,1.8876,1.8874,1.8964,1.8893,1.8893,1.8893,1.8893,0,1.8324,1.8375,1.8409,1.8446,1.8503,1.8523,1.8579,1.8602,1.8637,1.8678,1.8685,1.8723,1.8747,1.8789,1.8805,1.8862,1.8873,1.8884,1.8888,1.8884,1.8882,1.8899,1.8895,1.8895,1.8895,1.8894,1.8894,0,1.838,1.8405,1.8471,1.8517,1.8529,1.8569,1.8608,1.8644,1.8665,1.8717,1.873,1.8762,1.8811,1.8835,1.8896,1.8906,1.8971,1.8971,1.8957,1.8958,1.899,1.8987,1.9094,1.9109,1.9029,1.9029,1.903,0,1.8425,1.8464,1.8514,1.8542,1.8567,1.8612,1.8642,1.8663,1.8694,1.8743,1.8773,1.8822,1.8863,1.8941,1.897,1.9016,1.9018,1.9052,1.9025,1.9019,1.9017,1.9014,1.9018,1.9057,1.9058,1.9058,1.9059,0,1.8501,1.8511,1.8555,1.8602,1.8638,1.8676,1.8714,1.8736,1.8763,1.8797,1.8848,1.8879,1.8942,1.899,1.9039,1.9062,1.9065,1.9067,1.9077,1.9073,1.9062,1.9068,1.897,1.9064,1.9064,1.9063,1.9063,1.9063,1.8552,1.8587,1.8628,1.8676,1.8706,1.8741,1.8777,1.8802,1.8844,1.8897,1.8906,1.896,1.8999,1.9064,1.909,1.9131,1.9123,1.9138,1.9142,1.9145,1.9146,1.9056,1.914,1.914,1.914,1.914,1.914,0,1.8628,1.8655,1.8698,1.8751,1.8788,1.8788,1.8829,1.886,1.8907,1.8944,1.8984,1.9041,1.9089,1.9121,1.9169,1.9196,1.9198,1.9207,1.9205,1.921,1.9151,1.9137,1.9205,1.9205,1.9205,1.9205,1.9205,1.9205,1.8672,1.8731,1.8746,1.882,1.8846,1.8898,1.8922,1.8954,1.8983,1.9047,1.9087,1.9107,1.9142,1.9192,1.9235,1.9243,1.926,1.927,1.9278,1.9222,1.9215,1.9208,1.9195,1.9274,1.9274,1.9333,1.9334,1.9334]},{"header":{"parameterUnit":"m.s-1","parameterCategory":1,"la1":30.2991,"la2":30.254,"lo1":-89.0895,"lo2":-89.0444,"dy":0.0017,"dx":0.0017,"nx":28,"ny":28,"refTime":"2025-04-24T09:00:00:Z","depth":0,"parameterNumber":3,"parameterNumberName":"V-component_of_WINDS"},"data":[0,0,0,0,0,0,0,0,0,0,0,0,0,0,0,0,0,0,0,0,0,0,0,0,0,0,0,0,0,0,0,0,0,0,0,0,0,0,0,0,0,0,0,0,0,0,0,0,0,0,0,0,0,0,0,0,0,0,1.242,1.242,0,1.2432,1.2432,1.2432,1.241,1.2409,1.2409,1.2408,1.2419,1.242,1.2421,0,0,0,0,0,0,0,0,0,0,0,0,0,1.2376,1.2377,1.242,1.242,1.242,1.2432,1.2432,1.2432,1.241,1.2409,1.2409,1.2408,1.2419,1.242,1.2421,0,0,0,0,0,0,0,0,0,0,0,0,0,1.2392,1.2377,1.242,1.2411,1.241,1.2432,1.2432,1.2432,1.241,1.2409,1.2408,1.2407,1.2418,1.242,1.2421,1.2452,0,0,1.2426,1.2426,0,0,0,0,0,0,0,0,1.2392,1.2394,1.2412,1.2411,1.2411,1.2419,1.2421,1.2439,1.2411,1.241,1.2408,1.2407,1.242,1.2421,1.2426,1.2453,1.2453,1.2426,1.2427,1.2427,1.2428,0,0,0,0,0,0,0,1.239,1.2393,1.2425,1.2412,1.2411,1.2405,1.2407,1.2424,1.2421,1.241,1.2409,1.241,1.2419,1.2424,1.2426,1.2454,1.2426,1.2427,1.2428,1.2429,1.2506,1.2507,0,0,0,0,0,0,1.2391,1.2393,1.2424,1.2425,1.2398,1.2407,1.2408,1.2417,1.2421,1.242,1.2411,1.2409,1.2422,1.2424,1.2426,1.2463,1.2427,1.2429,1.243,1.2505,1.2506,1.2508,0,0,0,0,0,0,1.239,1.2394,1.2424,1.2408,1.2412,1.2409,1.2419,1.2418,1.2423,1.2422,1.2421,1.2417,1.2422,1.2424,1.2446,1.2463,1.2429,1.2431,1.2504,1.2506,1.2507,1.2536,0,0,0,0,0,0,1.2389,1.2394,1.2406,1.2409,1.2413,1.2444,1.242,1.2419,1.2426,1.2423,1.2427,1.2427,1.2421,1.2444,1.2447,1.2464,1.2432,1.2502,1.2504,1.2507,1.2534,1.2539,1.2543,0,0,0,0,0,1.2387,1.2413,1.2407,1.2411,1.2428,1.2445,1.2447,1.2441,1.2427,1.2439,1.2438,1.2426,1.246,1.2446,1.245,1.2467,1.2501,1.2504,1.2506,1.2532,1.2538,1.2543,0,0,0,0,0,0,1.2412,1.2414,1.2406,1.2434,1.244,1.2442,1.2457,1.2447,1.2457,1.2454,1.2445,1.2446,1.2469,1.247,1.2455,1.2497,1.2478,1.2482,1.2496,1.2502,1.2506,1.2506,1.2433,0,0,0,0,0,1.2421,1.2435,1.2435,1.246,1.2463,1.246,1.2467,1.2461,1.2466,1.2468,1.2469,1.2474,1.2486,1.2494,1.2504,1.2533,1.2534,1.2547,1.2552,1.2555,1.2559,1.2574,1.258,1.2516,1.2516,1.2516,0,0,1.2439,1.2442,1.2451,1.2465,1.2469,1.2483,1.2462,1.2478,1.2489,1.2471,1.2492,1.2492,1.2497,1.2523,1.2534,1.2524,1.2576,1.2559,1.2562,1.2563,1.2577,1.2583,1.2589,1.2518,1.2518,1.2518,0,0,1.248,1.2484,1.2505,1.2509,1.2514,1.2511,1.2516,1.2519,1.2519,1.254,1.2527,1.2539,1.2559,1.2563,1.2568,1.261,1.2599,1.2613,1.2638,1.2652,1.2657,1.2662,1.2677,1.2682,1.2616,1.2616,1.2616,0,1.2502,1.2524,1.2516,1.2534,1.254,1.2524,1.2545,1.2549,1.2558,1.2562,1.2551,1.2577,1.2579,1.2605,1.2615,1.2619,1.2625,1.2613,1.2657,1.2662,1.2666,1.268,1.2685,1.2618,1.2618,1.2618,1.2618,0,1.2551,1.2566,1.2582,1.2591,1.2599,1.2618,1.2613,1.2621,1.2615,1.2613,1.2634,1.2636,1.2647,1.2652,1.2646,1.2677,1.2671,1.2659,1.264,1.2674,1.2687,1.2692,1.2621,1.262,1.2619,1.2619,0,0,1.2609,1.2613,1.2619,1.2623,1.2628,1.2639,1.2657,1.2667,1.2675,1.2681,1.2696,1.2713,1.2702,1.2707,1.2701,1.2714,1.2746,1.27,1.27,1.2709,1.2781,1.2791,1.2797,1.2739,1.274,1.2741,1.2781,0,1.2649,1.2681,1.2674,1.2704,1.2718,1.2703,1.2718,1.2723,1.2721,1.2732,1.273,1.2742,1.2726,1.2729,1.2742,1.274,1.2761,1.2737,1.2752,1.2753,1.2752,1.2804,1.2814,1.2852,1.2786,1.2787,1.2787,0,1.2701,1.271,1.2742,1.2744,1.275,1.2764,1.2773,1.2783,1.2788,1.2786,1.2791,1.2782,1.2799,1.2779,1.2802,1.2786,1.2792,1.2792,1.2793,1.2795,1.2773,1.2807,1.2864,1.287,1.2795,1.2795,1.2794,0,1.2741,1.276,1.2782,1.2785,1.2788,1.2799,1.28,1.2803,1.281,1.2818,1.2822,1.2831,1.2836,1.2844,1.2837,1.2823,1.2861,1.2841,1.286,1.286,1.2869,1.2868,1.2928,1.2872,1.2872,1.2872,1.2872,0,1.2787,1.2807,1.2799,1.2813,1.2835,1.2826,1.2848,1.2847,1.285,1.2863,1.285,1.2862,1.2853,1.2864,1.2858,1.2878,1.2881,1.2879,1.2878,1.2881,1.2881,1.2885,1.2882,1.2873,1.2873,1.2873,1.2872,0,1.2835,1.2831,1.2853,1.2854,1.2855,1.2871,1.2871,1.2883,1.288,1.2897,1.29,1.2895,1.2907,1.2901,1.2914,1.2911,1.2936,1.2931,1.2935,1.2934,1.2953,1.2952,1.3017,1.3026,1.2964,1.2965,1.2965,0,1.2866,1.2881,1.2883,1.2891,1.2893,1.2906,1.2913,1.2904,1.2912,1.2917,1.2929,1.294,1.2948,1.2969,1.2966,1.2976,1.2971,1.2993,1.2972,1.2975,1.2971,1.2971,1.2972,1.2997,1.2998,1.2999,1.2999,0,1.292,1.2917,1.2927,1.2937,1.2945,1.2952,1.2958,1.2965,1.2956,1.2965,1.2978,1.2985,1.2997,1.3009,1.3017,1.3018,1.3007,1.3006,1.3011,1.3014,1.3016,1.3015,1.2947,1.3004,1.3004,1.3003,1.3003,1.3003,1.296,1.2973,1.2976,1.2988,1.2992,1.2997,1.3009,1.3007,1.3018,1.3028,1.3022,1.3036,1.3039,1.3049,1.3052,1.3063,1.3054,1.3061,1.3063,1.3065,1.3068,1.3014,1.3064,1.3064,1.3064,1.3064,1.3063,0,1.3014,1.3015,1.3026,1.3035,1.3044,1.3033,1.3039,1.3047,1.306,1.3064,1.3073,1.3087,1.3098,1.3096,1.3105,1.3114,1.311,1.3117,1.3117,1.3117,1.3075,1.307,1.3121,1.3121,1.3121,1.3121,1.3121,1.3121,1.3043,1.3064,1.3061,1.3083,1.3084,1.3099,1.3103,1.3108,1.3111,1.3127,1.3136,1.3135,1.3136,1.3146,1.3155,1.3154,1.3158,1.3168,1.3165,1.3126,1.312,1.3115,1.311,1.3169,1.3169,1.3206,1.3207,1.3207]}]]